Regional Weather Roundup
Issued by NWS Goodland, KS

Home | Current Version | Previous Version | Graphics & Text | Print | Product List | Glossary On
Versions: 1 2 3 4 5 6 7 8 9 10 11 12 13 14 15 16 17 18 19 20 21 22 23 24 25 26 27 28 29 30 31 32 33 34 35 36 37 38 39 40 41 42 43 44 45 46 47 48 49 50
000
ASUS43 KGLD 132159
RWRGLD

GOODLAND FORECAST AREA HOURLY WEATHER ROUNDUP
NATIONAL WEATHER SERVICE GOODLAND KS
300 PM MST SAT FEB 13 2016

...OFFICIAL OBSERVATIONS...

CITY           SKY/WX    TMP DP  RH WIND       PRES   REMARKS
GOODLAND KS    CLOUDY    30  29  96 S8        29.99F FOG
HILL CITY KS   CLOUDY    36  20  52 SE13      30.10F
IMPERIAL NEB   CLOUDY    30  27  88 S13       29.98F WCI  20
MCCOOK NEB     CLOUDY    28  22  78 S12       30.08F HAZE    WCI  18
AKRON CO       CLOUDY    44  35  70 SW9       29.91F
BURLINGTON CO  CLOUDY    32  29  88 S8        29.96F
LIMON CO       CLOUDY    44  35  70 CALM      29.94F
$$

...UNOFFICIAL OBSERVATIONS...

CITY           SKY/WX    TMP DP  RH WIND       PRES   REMARKS
COLBY KS       CLOUDY    30  30 100 S7        30.04F FOG
GOVE KS          N/A     39  32  76 MISG        N/A
LENORA KS        N/A     32  32 100 MISG        N/A
NORTON KS      CLOUDY    30  18  59 SE10      30.10
SHARON SPRINGS   N/A     42  33  71 SE8G17      N/A
KIT CARSON CO    N/A     36  34  92 MISG        N/A
YUMA CO          N/A     45  37  73 CALM        N/A
$$



USA.gov is the U.S. government's official web portal to all federal, state and local government web resources and services.